Aeroporto :
LOGIN :

Iscrizione | Disclaimer

   EN    FR    IT 

 










Sommario :    VFR   VFR Marginale   IFR   IFR Intensivo   IFR Molto Intensivo
Visibilità : 
Base nubi : 
>= 8 km
>= 3000ft
5 / 8 km
1000 / 3000 ft
1500m / 5 km
500 / 1000 ft
800 / 1500m
200 / 500 ft
< 800m
< 200 ft
Simboli :   Temporali  Nebbia  Neve Forte  Precipitazioni Forti  Vento > 20 kt
SIGMETs :   Varie  Temporali  Ghiacco  Turbolenza  Onda orograficha  Ceneri Vulcaniche






- Altitudine del aeroporto : 1178 ft
- Codice IATA : EVG


ESND - Sveg

ULTIMO METAR :
  • 131650Z AUTO 10003KT 060V180 //// R09///// // SCT086/// 18/16 Q1015

METARs OBSOLETI :
  • 131620Z AUTO 29004KT 250V340 //// R09///// // FEW082/// SCT140/// 18/16 Q1015
  • 131550Z AUTO 28004KT 230V320 //// R09///// // FEW066/// SCT080/// BKN140/// 18/16 Q1016
  • 131520Z AUTO VRB03KT //// R09///// // FEW002/// BKN055/// OVC064/// 19/15 Q1015
  • 131450Z AUTO 14005KT 100V180 //// R09///// // BKN066/// BKN086/// 24/11 Q1015
  • 131420Z AUTO 12004KT 070V150 //// R09///// // FEW061/// SCT096/// 24/10 Q1015

TAF N/A



MetMap, La meteo Aeronautica in un colpo d'occhio ! - Copyright ORBIFLY Dicembre 2007 - Disclaimer

ORBIFLY MET'MAP TEAM :

Programmazione e sviluppo : Alexandra Zaïnal
Concezione : Baudouin d'Aumeries
Aiuto per la programmazione : Marc-Olivier Méhu
Supporto tecnico e logistico : Manuel Goepfert
Aiuto per la traduzione : Arnaldo La Scala

Contatto : metmap@orbifly.com




FONTI E CREDITI :

   NOAA